Weather Roundup
Issued by NWS

Home | Current Version | Previous Version | Text Only | Print | Product List | Glossary On
Versions: 1 2 3 4 5 6 7 8 9 10 11 12 13 14 15 16 17 18 19 20 21 22 23 24 25 26 27 28 29 30 31 32 33 34 35 36 37 38 39 40 41 42 43 44 45 46 47 48 49 50
419
NZUS93 KARX 271410
HRRWXR

CURRENT HOURLY OBSERVATIONS ACROSS
MUCH OF THE UPPER MISSISSIPPI VALLEY
NATIONAL WEATHER SERVICE LA CROSSE WI
900 AM CDT TUE JUN 27 2017


...SOUTHEAST MINNESOTA...


CITY           SKY/WX    TMP DP  RH WIND       PRES   REMARKS
ROCHESTER      SUNNY     65  45  48 W9        30.14S
ROCHESTER/MAYO FAIR      62  45  55 SW7       30.13S
WINONA         SUNNY     61  50  67 CALM      30.12S
AUSTIN         SUNNY     63  48  59 SW3       30.13S
ALBERT LEA     SUNNY     64  45  48 SW6       30.13S
DODGE CENTER   SUNNY     63  45  51 W9        30.13S
PRESTON        SUNNY     63  47  55 W6        30.14S
OWATONNA       SUNNY     64  45  48 SW7       30.13S
FARIBAULT      SUNNY     64  48  55 NW5       30.12S
$$

...ELSEWHERE IN MINNESOTA...


CITY           SKY/WX    TMP DP  RH WIND       PRES   REMARKS
MINNEAPOLIS    MOSUNNY   66  44  45 W8        30.10S
INTNL FALLS    PTSUNNY   61  46  57 W6        29.98F
DULUTH         MOSUNNY   64  47  53 W8        30.04S
RED WING       SUNNY     63  46  55 CALM      30.10S
REDWOOD FALLS  SUNNY     66  43  43 S12       30.07F
MANKATO        SUNNY     64  46  52 S7        30.11F
WORTHINGTON    MOSUNNY   64  43  46 S16       30.09F
FAIRMONT       SUNNY     64  45  49 S9        30.11F
$$

...SOUTHWEST WISCONSIN...


CITY           SKY/WX    TMP DP  RH WIND       PRES   REMARKS
LA CROSSE      SUNNY     66  49  54 S7        30.12S
PRAIRIE DU CHI SUNNY     62  52  69 CALM      30.14S
BOSCOBEL       SUNNY     64  51  62 SW6       30.15R
LONE ROCK      SUNNY     61  49  64 W5        30.14S
PLATTEVILLE    SUNNY     64  48  57 W8        30.16R
FORT MC COY    SUNNY     60  49  67 W5        30.12F
CAMP DOUGLAS   MOSUNNY   64  50  59 W12       30.11S
MAUSTON-NEW LI SUNNY     65  49  55 W10G16    30.11S
VIROQUA        FAIR      63  50  62 W6        30.14S
WIS DELLS      SUNNY     63  47  56 W7        30.12S
$$

...ELSEWHERE IN WISCONSIN...


CITY           SKY/WX    TMP DP  RH WIND       PRES   REMARKS
MILWAUKEE      MOSUNNY   65  49  56 W9        30.12R
MADISON        MOSUNNY   64  50  60 VRB7      30.13R
GREEN BAY      MOSUNNY   63  54  72 W7        30.08R
EAU CLAIRE     SUNNY     62  49  62 W7        30.10R
BLACK RVR FLS  FAIR      64  49  57 SW3       30.11S
MEDFORD        SUNNY     59  49  67 W6        30.09S
WAUSAU         SUNNY     63  49  60 W12       30.07S
WIS RAPIDS     SUNNY     63  49  60 W10       30.11S
MARSHFIELD     SUNNY     61  48  62 W10       30.09S
RICE LAKE      SUNNY     62  49  63 W5        30.11S
$$

...NORTHEAST IOWA...


CITY           SKY/WX    TMP DP  RH WIND       PRES   REMARKS
WATERLOO       SUNNY     63  46  54 S3        30.14S
DUBUQUE        SUNNY     65  47  52 W10       30.16S
DECORAH        SUNNY     63  50  63 W3        30.13S
MASON CITY     SUNNY     65  44  46 SW13      30.15S
CHARLES CITY   SUNNY     64  48  55 SW7       30.15S
OELWEIN        NOT AVBL
$$

...ELSEWHERE IN IOWA...


CITY           SKY/WX    TMP DP  RH WIND       PRES   REMARKS
DES MOINES     MOSUNNY   64  49  57 SE10      30.14F
IOWA CITY      SUNNY     66  48  52 W3        30.18S
FORT DODGE     SUNNY     64  46  52 S7        30.15S
MARSHALLTOWN   SUNNY     63  51  65 SW8       30.15S
CEDAR RAPIDS   SUNNY     62  50  64 SW5       30.16S
$$

...NORTHERN ILLINOIS...


CITY           SKY/WX    TMP DP  RH WIND       PRES   REMARKS
CHICAGO-OHARE  MOSUNNY   66  46  48 NW8       30.13S
CHICAGO-MIDWAY MOSUNNY   66  46  48 W10       30.14S
MOLINE         SUNNY     66  49  54 W6        30.17R
ROCKFORD       SUNNY     66  49  54 W7        30.16S
PEORIA         SUNNY     65  51  60 S3        30.18R
$$

NOTE: "FAIR" INDICATES FEW OR NO CLOUDS BELOW 12,000 FEET WITH NO
SIGNIFICANT WEATHER AND/OR OBSTRUCTIONS TO VISIBILITY. WIND
SPEEDS ARE IN MILES-PER-HOUR.




USA.gov is the U.S. government's official web portal to all federal, state and local government web resources and services.